Last 24 Hours

Red Mountain

10 Minute Data | America/Los_Angeles
as of 9/2/26 12:02 AM PDT
Date & Time Temp (°F) Dew Pt (°F) RH (%) Wind Spd (mph) Wind Dir (°) Wind Gust (mph) Wind Gst Dir (°) Daily Max Temp (°F) Daily Min Temp (°F)
9/1/26 - 2340 60.9 21.5 22 10.3 WSW | 241 13.9 WSW | 249 76.0 60.6
9/1/26 - 2330 61.1 21.5 22 10.4 WSW | 237 13.4 SW | 234 76.0 60.9
9/1/26 - 2320 61.5 21.4 21 10.0 SW | 234 13.6 SW | 229 76.0 61.2
9/1/26 - 2310 61.5 21.6 21 11.2 SW | 236 13.9 WSW | 237 76.0 61.4
9/1/26 - 2300 61.7 21.0 21 10.1 WSW | 240 13.7 WSW | 237 76.0 61.5
9/1/26 - 2250 61.8 20.4 20 9.3 WSW | 237 13.1 SW | 226 76.0 61.6
9/1/26 - 2240 62.0 21.2 21 6.8 WSW | 239 10.3 WSW | 237 76.0 61.8
9/1/26 - 2230 62.4 21.8 21 5.8 WSW | 243 8.6 WSW | 240 76.0 62.1
9/1/26 - 2220 62.6 22.4 21 7.5 WSW | 244 9.9 WSW | 244 76.0 62.3
9/1/26 - 2210 62.7 22.3 21 6.4 WSW | 249 8.6 W | 262 76.0 62.3
9/1/26 - 2200 62.7 21.8 21 6.5 SW | 234 8.3 SW | 230 76.0 62.3
9/1/26 - 2150 62.6 23.0 22 5.3 SW | 236 7.7 WSW | 240 76.0 62.3
9/1/26 - 2140 63.0 26.8 25 4.5 WSW | 252 6.1 WSW | 253 76.0 62.3
9/1/26 - 2130 63.2 28.2 26 4.5 WSW | 257 6.6 W | 260 76.0 62.3
9/1/26 - 2120 63.3 28.8 27 5.5 W | 260 7.3 W | 271 76.0 62.3
9/1/26 - 2110 63.4 28.2 26 4.8 WSW | 256 7.1 W | 260 76.0 62.3
9/1/26 - 2100 63.1 25.9 24 5.2 WSW | 247 7.2 WSW | 250 76.0 62.3
9/1/26 - 2050 62.7 22.2 21 5.3 WSW | 243 7.2 SW | 227 76.0 62.3
9/1/26 - 2040 62.6 22.9 22 6.2 WSW | 249 8.5 W | 263 76.0 62.3
9/1/26 - 2030 62.5 24.0 23 6.8 WSW | 242 9.5 WSW | 244 76.0 62.3
9/1/26 - 2020 62.9 27.9 26 6.4 SW | 233 9.8 SW | 225 76.0 62.5
9/1/26 - 2010 63.6 29.7 28 8.6 WSW | 245 13.2 WSW | 249 76.0 62.7
9/1/26 - 2000 62.9 27.6 26 7.2 WSW | 245 9.6 WSW | 249 76.0 62.7
9/1/26 - 1950 63.0 26.7 25 6.6 WSW | 246 10.6 WSW | 251 76.0 62.8
9/1/26 - 1940 63.4 26.6 25 8.2 WSW | 239 12.3 WSW | 238 76.0 63.0
9/1/26 - 1930 63.6 26.8 25 8.5 WSW | 253 10.8 WSW | 244 76.0 63.5
9/1/26 - 1920 64.0 29.3 27 9.3 WSW | 237 11.5 WSW | 247 76.0 63.6
9/1/26 - 1910 64.7 32.3 30 9.3 SW | 224 12.1 SW | 232 76.0 64.2
9/1/26 - 1900 66.1 36.8 34 8.3 SW | 225 11.6 SW | 226 76.0 64.2
9/1/26 - 1850 67.3 35.6 31 6.4 SW | 226 10.4 SW | 219 76.0 64.2
9/1/26 - 1840 67.4 35.3 30 6.0 SW | 219 9.7 SSW | 208 76.0 64.2
9/1/26 - 1830 67.2 35.6 31 8.4 SW | 231 13.8 SW | 216 76.0 64.2
9/1/26 - 1820 67.9 36.7 32 9.4 SW | 232 14.5 SW | 230 76.0 64.2
9/1/26 - 1810 68.4 36.4 31 11.1 WSW | 237 16.4 SW | 224 76.0 64.2
9/1/26 - 1800 69.0 36.8 31 11.3 SW | 230 16.4 SW | 228 76.0 64.2
9/1/26 - 1750 69.6 36.7 30 11.7 SW | 235 17.2 SW | 235 76.0 64.2
9/1/26 - 1740 69.9 36.6 30 12.2 SW | 230 17.3 SW | 234 76.0 64.2
9/1/26 - 1730 71.0 35.8 27 11.8 SW | 230 18.6 SW | 223 76.0 64.2
9/1/26 - 1720 70.8 36.6 29 13.6 SW | 231 19.1 SW | 233 76.0 64.2
9/1/26 - 1710 71.9 37.6 29 12.9 SW | 233 21.3 WSW | 251 76.0 64.2
9/1/26 - 1700 71.9 37.5 28 12.7 SW | 230 20.5 WSW | 239 76.0 64.2
9/1/26 - 1650 71.6 37.8 29 14.2 SW | 230 21.3 SW | 228 76.0 64.2
9/1/26 - 1640 72.4 38.5 29 13.0 SW | 230 20.4 SW | 234 76.0 64.2
9/1/26 - 1630 73.3 39.1 29 13.7 SW | 229 22.6 WSW | 251 76.0 64.2
9/1/26 - 1620 72.6 39.5 30 16.5 SW | 236 24.1 WSW | 255 76.0 64.2
9/1/26 - 1610 73.8 39.8 29 11.1 SW | 228 21.4 SW | 233 76.0 64.2
9/1/26 - 1600 72.8 40.1 31 14.3 SW | 232 23.4 SW | 228 76.0 64.2
9/1/26 - 1550 72.8 40.1 31 13.4 SW | 228 20.4 WSW | 252 76.0 64.2
9/1/26 - 1540 73.7 39.5 29 15.2 SW | 234 24.5 SW | 236 76.0 64.2
9/1/26 - 1530 74.7 39.4 28 10.7 SW | 229 21.6 WSW | 246 76.0 64.2
9/1/26 - 1520 73.6 38.7 28 13.6 SW | 229 21.4 SW | 230 75.7 64.2
9/1/26 - 1510 73.8 37.6 27 14.5 SW | 234 24.1 SW | 232 75.7 64.2
9/1/26 - 1500 73.5 36.4 26 12.6 WSW | 240 21.0 WSW | 253 75.7 64.2
9/1/26 - 1450 72.6 35.5 26 13.6 SW | 228 23.2 WSW | 244 75.7 64.2
9/1/26 - 1440 73.4 34.4 24 13.4 SW | 231 20.2 SW | 220 75.7 64.2
9/1/26 - 1430 73.2 33.8 24 11.6 SW | 230 23.4 WSW | 241 75.7 64.2
9/1/26 - 1420 72.8 33.8 24 12.9 WSW | 238 20.9 WSW | 245 75.7 64.2
9/1/26 - 1410 74.1 33.8 23 10.9 SW | 218 20.0 WSW | 250 75.7 64.2
9/1/26 - 1400 73.6 34.4 24 12.2 SW | 230 21.4 SW | 223 75.6 64.2
9/1/26 - 1350 72.3 35.9 26 12.2 SW | 230 21.9 WSW | 240 75.6 64.2
9/1/26 - 1340 73.3 37.6 27 10.9 SW | 236 22.6 SW | 234 75.6 64.2
9/1/26 - 1330 73.3 38.4 28 11.9 SW | 234 18.4 SW | 229 74.3 64.2
9/1/26 - 1320 72.2 38.5 29 10.7 SW | 231 18.2 WSW | 238 74.3 64.2
9/1/26 - 1310 71.4 39.1 31 11.8 SW | 216 21.4 SW | 236 74.3 64.2
9/1/26 - 1300 72.2 38.0 29 10.0 SW | 231 18.0 SW | 217 74.3 64.2
9/1/26 - 1250 72.7 36.9 27 10.4 SW | 223 20.1 WSW | 238 74.3 64.2
9/1/26 - 1240 71.9 38.2 29 12.1 WSW | 237 20.4 WSW | 239 74.3 64.2
9/1/26 - 1230 72.5 38.0 29 7.4 SW | 215 16.2 SW | 231 74.3 64.2
9/1/26 - 1220 71.2 39.4 31 10.7 SW | 233 18.9 WSW | 239 73.2 64.2
9/1/26 - 1210 70.5 37.3 30 12.2 SW | 235 22.1 WSW | 258 73.2 64.2
9/1/26 - 1200 71.3 34.1 25 8.5 WSW | 249 19.0 WSW | 253 73.2 64.2
9/1/26 - 1150 70.5 33.7 26 11.1 WSW | 238 19.9 WSW | 245 71.8 64.2
9/1/26 - 1140 69.7 34.1 27 9.4 WSW | 254 18.3 WSW | 258 71.5 64.2
9/1/26 - 1130 70.0 33.8 26 10.1 WSW | 245 16.7 WSW | 256 71.5 64.2
9/1/26 - 1120 69.6 32.1 25 13.1 WSW | 241 21.8 WSW | 244 71.5 64.2
9/1/26 - 1110 69.6 28.4 21 10.7 WSW | 242 15.9 WSW | 238 71.5 64.2
9/1/26 - 1100 70.4 29.4 22 8.0 SW | 229 14.9 WNW | 291 71.5 64.2
9/1/26 - 1050 69.3 29.0 22 7.5 SW | 227 14.7 WSW | 251 71.5 64.2
9/1/26 - 1040 69.6 32.1 25 6.8 SW | 231 12.4 SW | 235 71.5 64.2
9/1/26 - 1030 69.6 31.8 25 5.3 SW | 216 11.3 SW | 218 71.5 64.2
9/1/26 - 1020 69.4 28.8 22 4.5 SSW | 208 11.5 SW | 232 71.5 64.2
9/1/26 - 1010 68.3 30.6 24 5.7 SW | 217 11.8 SW | 222 69.7 64.2
9/1/26 - 1000 68.8 29.3 23 4.9 SSW | 204 9.3 SSW | 199 69.7 64.2
9/1/26 - 0950 68.8 31.1 25 5.8 SW | 229 11.0 WSW | 241 69.6 64.2
9/1/26 - 0940 67.8 30.0 24 4.4 WSW | 250 8.6 WNW | 301 69.6 64.2
9/1/26 - 0930 67.0 29.6 24 5.0 SW | 225 8.8 W | 259 67.5 64.2
9/1/26 - 0920 66.6 28.6 24 5.9 SW | 222 10.4 SW | 221 67.4 64.2
9/1/26 - 0910 66.2 27.8 23 5.6 SW | 226 9.1 SW | 219 67.4 64.2
9/1/26 - 0900 65.9 28.2 24 2.7 SW | 223 5.9 SSW | 194 67.4 64.2
9/1/26 - 0850 65.5 28.7 25 3.4 WSW | 241 6.7 WSW | 237 67.4 64.2
9/1/26 - 0840 65.3 27.7 24 3.9 WSW | 248 5.7 W | 271 67.4 64.2
9/1/26 - 0830 65.4 24.4 21 3.1 SW | 222 5.9 WSW | 255 67.4 64.2
9/1/26 - 0820 65.3 22.3 19 3.8 SSW | 210 5.3 SSW | 204 67.4 64.2
9/1/26 - 0810 65.6 24.8 21 3.9 SSW | 201 5.6 SSW | 212 67.4 64.2
9/1/26 - 0800 66.7 27.4 23 3.1 S | 186 5.7 SSW | 200 67.4 64.2
9/1/26 - 0750 65.2 26.5 23 5.1 SSW | 201 6.9 SW | 214 66.8 64.2
9/1/26 - 0740 65.2 28.5 25 6.0 SSW | 203 6.9 SSW | 212 66.8 64.2
9/1/26 - 0730 65.6 29.7 26 5.8 SSW | 200 6.6 SSW | 199 66.8 64.2
9/1/26 - 0720 66.5 29.4 25 2.4 S | 191 5.0 SSW | 200 66.8 64.2
9/1/26 - 0710 66.1 29.2 25 2.8 S | 182 5.0 SSE | 163 66.3 64.2
9/1/26 - 0700 65.9 25.7 22 2.2 S | 182 3.6 SSW | 198 66.3 64.2
9/1/26 - 0650 65.7 23.0 20 2.9 S | 174 3.5 S | 171 66.3 64.2
9/1/26 - 0640 65.4 24.7 21 3.3 SSE | 166 4.0 S | 173 66.3 64.2
9/1/26 - 0630 65.6 24.4 21 2.6 S | 186 4.1 SSW | 202 66.3 64.2
9/1/26 - 0620 65.8 26.3 23 3.3 SSW | 195 4.9 SSW | 210 66.3 64.2
9/1/26 - 0610 66.0 22.8 19 4.2 SW | 215 5.4 SW | 227 66.3 64.2
9/1/26 - 0600 66.0 24.5 21 4.1 SSW | 210 5.0 SW | 215 66.3 64.2
9/1/26 - 0550 65.8 27.7 24 3.2 S | 188 4.9 SSW | 208 66.3 64.2
9/1/26 - 0540 65.6 29.5 26 3.1 S | 181 4.5 S | 181 66.3 64.2
9/1/26 - 0530 65.4 31.3 28 4.1 SSW | 198 5.4 SSW | 202 66.3 64.2
9/1/26 - 0520 65.5 28.2 24 3.9 SW | 219 5.5 SSW | 209 66.3 64.2
9/1/26 - 0510 65.7 26.0 22 4.3 SW | 233 5.8 SW | 228 66.3 64.2
9/1/26 - 0500 65.8 26.1 22 4.6 SW | 232 5.7 SW | 229 66.3 64.2
9/1/26 - 0450 65.8 25.6 22 5.3 WSW | 237 6.6 WSW | 249 66.3 64.2
9/1/26 - 0440 65.9 25.1 21 5.2 WSW | 239 6.9 SW | 236 66.3 64.2
9/1/26 - 0430 66.1 25.1 21 5.1 SW | 233 6.4 WSW | 246 66.3 64.2
9/1/26 - 0420 66.2 24.1 20 4.5 SW | 228 5.4 SW | 226 66.3 64.2
9/1/26 - 0410 66.2 24.5 20 5.6 SW | 223 7.2 SW | 221 66.3 64.2
9/1/26 - 0400 66.1 25.0 21 5.7 SSW | 207 7.9 SSW | 212 66.2 64.2
9/1/26 - 0350 65.7 26.7 23 4.7 S | 170 7.1 S | 174 66.2 64.2
9/1/26 - 0340 65.7 27.5 24 5.0 SSE | 165 6.9 S | 169 66.2 64.2
9/1/26 - 0330 65.5 29.3 26 5.7 SSE | 162 7.2 SSE | 166 66.2 64.2
9/1/26 - 0320 65.4 29.4 26 6.0 SSE | 163 7.7 SSE | 165 66.2 64.2
9/1/26 - 0310 65.6 30.0 26 5.5 SSE | 160 7.2 S | 171 66.2 64.2
9/1/26 - 0300 65.6 30.2 26 5.3 SSE | 167 6.4 SSE | 168 66.2 64.2
9/1/26 - 0250 66.0 29.2 25 4.9 SSW | 192 7.2 SSW | 195 66.2 64.2
9/1/26 - 0240 66.1 28.6 24 6.8 SSW | 212 8.3 SW | 218 66.2 64.2
9/1/26 - 0230 65.3 31.1 28 6.4 SW | 234 8.2 SW | 224 65.7 64.2
9/1/26 - 0220 65.2 30.9 28 8.1 WSW | 244 11.5 WSW | 242 65.4 64.2
9/1/26 - 0210 65.1 30.4 27 9.2 WSW | 248 11.2 WSW | 246 65.4 64.2
9/1/26 - 0200 65.1 29.8 26 7.8 W | 262 10.7 WSW | 251 65.4 64.2
9/1/26 - 0150 65.1 28.6 25 9.0 W | 279 10.7 W | 277 65.4 64.2
9/1/26 - 0140 65.0 28.4 25 7.9 WNW | 284 10.7 W | 278 65.4 64.2
9/1/26 - 0130 65.1 32.1 29 8.6 W | 263 10.6 W | 262 65.4 64.2
9/1/26 - 0120 64.5 34.9 33 7.2 WSW | 258 9.0 WSW | 256 64.7 64.2
9/1/26 - 0110 64.4 36.3 35 5.5 W | 264 7.5 W | 259 64.5 64.3
9/1/26 - 0100 64.6 36.8 36 5.7 W | 269 7.9 WSW | 258 78.3 64.4
9/1/26 - 0050 65.1 35.3 33 6.2 WNW | 286 7.9 WNW | 290 78.3 64.7
9/1/26 - 0040 65.4 35.0 32 5.1 W | 269 7.9 WSW | 258 78.3 65.2
9/1/26 - 0030 65.5 35.8 33 4.5 WNW | 291 8.3 WNW | 287 78.3 65.2
9/1/26 - 0020 65.4 36.9 35 5.9 WNW | 282 7.4 WNW | 294 78.3 65.3
9/1/26 - 0010 65.5 37.1 35 6.2 W | 259 8.0 WSW | 256 78.3 65.3
9/1/26 - 0000 65.8 37.7 35 6.8 WSW | 244 8.0 WSW | 239 78.3 65.3
Max 74.7 40.1 36 16.5 - 24.5 - 78.3 65.3
Avg 67.2 30.7 26 7.8 - 12.1 - - -
Min 60.9 20.4 19 2.2 - 3.5 - 64.5 60.6